Location: Burtsch�tz
(51.0528°N, 12.1764°E)
Time: 07:46:02
(UTC+00:00)

BREEZE-M R/B - Pass Details

Date: 29 October 2020
Orbit: 286 x 23014 km, 49.2° (Epoch: 01 December)

Event Time Altitude Azimuth Distance (km) Brightness Sun altitude
Rises 15:53:11 0° 255° (WSW) 10,939 13.0 -1.3°
Reaches altitude 10° 16:04:32 10° 255° (WSW) 6,779 10.9 -3.0°
Maximum altitude 16:18:21 72° 175° (S) 980 4.6 -5.0°
Drops below altitude 10° 16:21:43 10° 90° (E) 1,768 5.3 -5.5°
Enters shadow 16:22:08 - 89° (E) 1,965 5.5 -5.6°
